User: anonymous   Login
Location: Sperry Observatory
(40.6664°N, 74.3236°W)
Time: 01:19:11
(UTC-05:00)
Language:

JAS-2 - Orbit

View from above orbital plane
View from above orbital plane
View from above satellite
View from above satellite

Ground track
Ground track

The orbit data is extracted from the following two-line orbital elements,

1 24278U 96046B   15028.90429457 -.00000014  00000-0  18998-4 0  5692
2 24278 098.5240 016.6501 0351356 072.0931 320.5835 13.53042019911192
Epoch (UTC): 28 January 2015 21:42:11
Eccentricity: 0.0351356
inclination: 98.5240°
perigee height: 800 km
apogee height: 1322 km
right ascension of ascending node: 16.6501°
argument of perigee: 72.0931°
revolutions per day: 13.53042019
mean anomaly at epoch: 320.5835°
orbit number at epoch: 91119

The dashed part of the orbit path shows where the satellite is in the earth's shadow,  

DLR